#timestamp,LO_Frequency,Hit,StdDev 
1583384415.6,286046996.4,N
1583384435.5,286046994.0,N
1583384455.3,286046993.9,N
1583384475.1,286046995.9,N
1583384495.9,286046993.4,N
1583384515.7,286046993.9,N
1583384535.5,286046993.5,N
1583384555.4,286046993.3,N
1583384575.2,286046995.4,N
1583384595.1,286046995.5,N
1583384596.0,286046995.5,N
1583384615.8,286046995.4,N
1583384635.6,286046995.5,N
1583384655.5,286046995.5,N
1583384675.3,286046995.4,N
1583384695.1,286046995.2,N
1583384715.9,286046996.4,N
1583384735.7,286046995.1,N
1583384755.6,286046995.1,Y
1583384775.4,286046998.9,P
1583384795.2,286046999.1,N
1583384815.1,286046998.4,N
1583384816.0,286046998.4,N
1583384835.8,286047001.0,N
1583384855.7,286046998.3,N
1583384875.5,286046999.5,N
1583384895.3,286046998.6,N
1583384915.2,286047001.0,N
1583384935.0,286046998.3,N
1583384935.9,286046998.3,N
1583384955.8,286046998.9,N
1583384975.6,286046998.9,N
1583384995.4,286047000.7,N
1583385015.3,286046997.2,N
1583385035.1,286046995.8,Y
1583385055.9,286046997.7,P
1583385075.7,286046996.5,P
1583385095.7,286046997.2,N
1583385115.5,286046999.6,N
1583385135.3,286047000.4,N
1583385155.2,286047002.6,N
1583385175.0,286047000.3,N
1583385175.9,286047000.3,N
1583385195.8,286046999.1,N
1583385215.6,286046997.0,N
1583385235.5,286046997.7,N
1583385255.3,286046997.2,N
1583385275.1,286046999.0,N
1583385295.9,286047000.0,N
1583385315.7,286046998.2,N
1583385335.5,286046998.6,N
1583385355.4,286046998.8,N
1583385375.2,286047001.2,N
1583385395.1,286046998.5,N
1583385396.0,286046998.5,N
1583385415.8,286046999.8,N
1583385435.6,286047001.0,N
1583385455.5,286046999.0,N
1583385475.3,286046998.7,N
1583385495.2,286046999.9,N
1583385515.9,286046998.2,N
1583385535.7,286047000.9,N
1583385555.6,286047002.1,N
1583385575.4,286047003.8,N
1583385595.2,286047002.0,N
1583385615.1,286047003.6,N
1583385616.0,286047003.6,N
1583385635.8,286047001.7,N
1583385655.7,286047001.8,N
1583385675.5,286047000.0,N
1583385695.3,286047000.0,N
1583385715.2,286047000.8,N
1583385735.0,286047002.7,N
1583385735.9,286047002.7,N
1583385755.8,286046998.4,N
1583385775.6,286047000.7,N
1583385795.4,286047000.7,N
1583385815.3,286047000.3,N
1583385835.1,286047002.7,N
1583385855.8,286047000.2,N
1583385875.7,286047000.9,N
1583385895.5,286046998.2,N
1583385915.4,286047002.2,N
1583385935.2,286047003.2,N
1583385955.0,286047004.2,N
1583385955.9,286047004.2,N
1583385975.8,286047003.2,N
1583385995.6,286047002.1,N
1583386015.5,286047011.9,Y
1583386035.3,286047003.8,P
1583386055.1,286047003.4,N
1583386075.9,286047003.3,P
1583386095.7,286047003.2,Y
1583386115.6,286046998.1,P
1583386135.4,286047000.8,N
1583386155.2,286046998.1,N
1583386175.1,286047002.2,N
1583386176.0,286047002.2,N
1583386195.8,286047000.2,N
1583386215.7,286047002.8,N
1583386235.5,286047000.6,N
1583386255.3,286047000.2,N
1583386275.2,286047001.2,N
1583386295.0,286046998.1,N
1583386295.9,286046998.1,N
1583386315.8,286046998.3,N
1583386335.6,286047000.4,N
1583386355.4,286047000.9,N
1583386375.3,286046998.5,N
1583386395.1,286047001.2,N
1583386415.9,286046998.2,N
1583386435.7,286047001.1,N
1583386455.5,286047000.6,N
1583386475.4,286047000.6,N
1583386495.2,286047000.7,N
1583386515.0,286046998.5,N
1583386516.0,286046998.5,N
1583386535.8,286047002.6,N
1583386555.6,286047000.7,N
1583386575.5,286047002.2,N
1583386595.3,286047000.0,N
1583386615.1,286046999.7,N
1583386635.9,286047002.3,N
1583386655.7,286047002.1,N
1583386675.6,286046999.7,N
1583386695.4,286047000.0,N
1583386715.2,286047001.5,N
1583386735.1,286047003.6,N
1583386736.0,286047003.6,N
1583386755.8,286047003.6,N
1583386775.7,286047002.0,N
1583386795.5,286047000.2,N
1583386815.3,286047000.2,N
1583386835.2,286047000.2,N
1583386855.0,286047000.9,N
1583386855.9,286047000.9,N
1583386875.7,286047000.2,N
1583386895.6,286047001.6,N
1583386915.4,286047002.7,N
1583386935.3,286047004.4,Y
1583386955.1,286047000.5,P
1583386975.8,286047000.8,P
1583386995.7,286046998.6,P
1583387015.5,286047000.7,N
1583387035.4,286046998.2,N
1583387055.2,286047001.2,N
1583387075.0,286046998.1,N
1583387075.9,286046998.1,N
1583387095.8,286046998.7,N
1583387115.6,286046998.1,N
1583387135.5,286047000.7,N
1583387155.3,286046996.8,N
1583387175.1,286046997.1,N
1583387195.9,286046997.2,N
1583387215.7,286046996.6,N
1583387235.5,286046999.1,N
1583387255.4,286046997.5,N
1583387275.2,286046998.1,N
1583387295.1,286047001.6,N
1583387296.0,286047001.6,N
1583387315.8,286047000.8,N
1583387335.6,286047000.3,N
1583387355.5,286046998.1,N
1583387375.3,286046999.3,N
1583387395.1,286046998.5,N
1583387415.9,286046998.5,N
1583387435.7,286047001.2,N
1583387455.6,286046998.4,N
1583387475.4,286046997.2,N
1583387495.2,286046997.7,N
1583387515.1,286046999.5,N
1583387516.0,286046999.5,N
1583387535.8,286046996.9,N
1583387555.7,286046995.4,Y
1583387575.5,286046997.0,P
1583387595.3,286046997.1,P
1583387615.2,286046997.0,P
1583387635.0,286046998.1,N
1583387635.9,286046998.1,N
1583387655.8,286046998.5,N
1583387675.6,286046999.5,N
1583387695.4,286046998.4,N
1583387715.3,286046998.8,N
1583387735.1,286046998.5,N
1583387755.8,286046999.0,N
1583387775.7,286046999.5,N
1583387795.5,286046998.9,N
1583387815.4,286046998.5,N
1583387835.2,286046997.5,Y
1583387855.0,286046999.8,P
1583387855.9,286046999.8,N
1583387875.8,286046999.8,N
1583387895.6,286047000.1,N
1583387915.5,286046998.5,N
1583387935.3,286047001.1,N
1583387955.1,286047000.6,N
1583387975.9,286047000.0,N
1583387995.7,286047001.7,N
